Total_Precipitation_Accumulation
1.99 2.08 2.56 3.04 3.11 2.11 1.40 1.09 0.89 0.80 0.66 0.46 0.34 0.29 0.45 0.83 1.11 1.23 1.07 0.94 0.66 0.57 0.51 0.63 0.80 0.78 0.70 0.66 0.65 0.68 0.69 0.70 0.70 0.65 0.55 0.51 0.43 0.36 0.31 0.26 0.23 0.24 0.25 0.29 0.31 0.32 0.28 0.31 0.36
1.74 2.22 2.94 3.39 2.44 1.58 1.35 1.03 0.90 0.72 0.54 0.36 0.30 0.24 0.31 0.31 0.34 0.63 1.21 1.28 0.70 0.53 0.53 0.64 0.86 0.88 0.84 0.80 0.81 0.80 0.75 0.71 0.73 0.68 0.61 0.56 0.50 0.44 0.44 0.42 0.32 0.29 0.30 0.33 0.32 0.30 0.31 0.37 0.43
1.99 2.62 3.32 3.10 1.89 1.38 1.39 1.00 0.74 0.49 0.34 0.30 0.31 0.24 0.30 0.38 0.52 0.88 1.21 0.98 0.66 0.56 0.53 0.72 0.94 0.86 0.84 0.88 0.99 0.98 0.90 0.80 0.74 0.72 0.69 0.63 0.57 0.57 0.63 0.53 0.45 0.41 0.41 0.44 0.45 0.42 0.41 0.48 0.52
2.13 2.93 3.05 2.28 1.62 1.30 1.09 0.90 0.63 0.48 0.29 0.16 0.21 0.30 0.27 0.36 0.58 0.85 0.85 0.62 0.46 0.45 0.46 0.69 0.99 0.90 0.87 0.92 1.07 0.98 0.92 0.90 0.83 0.82 0.82 0.78 0.73 0.73 0.72 0.67 0.64 0.57 0.55 0.55 0.57 0.55 0.53 0.57 0.57
2.27 2.85 2.66 2.21 1.55 1.38 0.99 0.78 0.62 0.52 0.39 0.22 0.18 0.36 0.37 0.51 0.66 0.74 0.73 0.59 0.48 0.46 0.44 0.59 0.92 0.88 0.82 0.86 0.97 0.95 0.94 0.99 0.90 0.84 0.86 0.85 0.83 0.84 0.87 0.85 0.77 0.74 0.71 0.69 0.68 0.63 0.54 0.54 0.59
2.52 2.53 2.47 2.33 1.75 1.51 1.15 0.85 0.57 0.51 0.44 0.31 0.24 0.38 0.45 0.58 0.64 0.72 0.72 0.72 0.67 0.59 0.48 0.51 0.75 0.77 0.76 0.84 0.91 0.95 0.93 0.90 0.81 0.83 0.88 0.89 0.88 0.92 0.94 0.94 0.87 0.84 0.81 0.82 0.81 0.76 0.65 0.60 0.62
2.28 2.17 1.86 1.54 1.63 1.72 1.16 0.68 0.61 0.65 0.61 0.54 0.32 0.45 0.57 0.57 0.51 0.55 0.69 0.87 1.00 0.93 0.76 0.65 0.62 0.63 0.69 0.84 0.90 1.06 1.10 0.94 0.82 0.80 0.80 0.79 0.80 0.83 0.89 0.90 0.85 0.81 0.84 0.84 0.83 0.79 0.74 0.72 0.70
1.96 1.84 1.50 1.40 1.60 1.76 1.01 0.59 0.46 0.48 0.49 0.38 0.29 0.40 0.53 0.53 0.52 0.60 0.73 0.87 0.90 0.90 0.87 0.82 0.81 0.77 0.77 0.79 0.96 1.24 1.37 1.20 0.94 0.82 0.78 0.79 0.74 0.73 0.80 0.77 0.78 0.81 0.89 0.92 0.92 0.87 0.80 0.82 0.82
1.72 1.78 1.62 1.56 1.54 1.37 0.77 0.51 0.35 0.26 0.29 0.28 0.20 0.27 0.35 0.37 0.44 0.61 0.77 0.85 0.86 0.83 0.83 0.82 0.85 0.89 1.00 1.01 1.07 1.33 1.49 1.46 1.09 0.89 0.86 0.77 0.61 0.74 0.78 0.64 0.78 0.85 0.96 0.99 1.02 0.95 0.87 0.92 0.89
1.79 1.66 1.47 1.25 1.09 0.84 0.56 0.43 0.32 0.31 0.32 0.28 0.23 0.25 0.29 0.35 0.42 0.53 0.62 0.65 0.69 0.71 0.71 0.73 0.75 0.74 0.80 0.86 1.18 1.39 1.31 1.38 1.11 1.05 0.97 0.88 0.89 0.92 0.79 0.69 0.81 0.95 1.06 1.02 1.02 1.03 0.97 0.87 0.69
1.50 1.40 1.10 0.99 0.80 0.57 0.44 0.38 0.32 0.34 0.36 0.27 0.21 0.23 0.27 0.35 0.41 0.42 0.45 0.49 0.53 0.56 0.51 0.48 0.52 0.53 0.58 0.67 0.85 1.13 1.39 1.44 1.40 1.34 1.25 1.17 1.06 0.88 0.77 0.76 0.75 0.85 0.94 0.88 0.95 0.94 0.82 0.74 0.66
1.29 1.14 0.91 0.75 0.51 0.52 0.46 0.35 0.31 0.29 0.24 0.18 0.17 0.21 0.28 0.36 0.41 0.41 0.43 0.45 0.50 0.57 0.57 0.48 0.42 0.46 0.46 0.50 0.64 0.88 1.11 1.26 1.28 1.19 1.10 1.27 1.20 0.96 0.85 0.92 0.93 0.89 0.92 1.02 1.04 0.97 0.89 0.80 0.72
1.18 1.15 0.82 0.56 0.49 0.50 0.41 0.34 0.27 0.23 0.18 0.16 0.18 0.26 0.37 0.44 0.47 0.46 0.46 0.49 0.53 0.57 0.62 0.56 0.43 0.37 0.42 0.45 0.51 0.60 0.84 1.00 1.00 1.13 1.09 1.13 1.11 0.97 0.88 0.88 1.02 0.97 0.97 1.06 1.14 1.01 0.92 0.92 0.89
1.02 0.90 0.72 0.52 0.47 0.46 0.44 0.32 0.26 0.27 0.21 0.21 0.24 0.32 0.42 0.48 0.50 0.51 0.49 0.50 0.50 0.51 0.53 0.54 0.49 0.47 0.46 0.43 0.43 0.48 0.54 0.71 0.74 0.75 0.74 0.94 1.04 1.02 1.03 0.92 1.00 1.13 1.15 1.10 1.08 1.05 0.95 0.90 0.92
0.80 0.68 0.61 0.53 0.50 0.47 0.43 0.42 0.31 0.30 0.26 0.24 0.26 0.30 0.38 0.47 0.50 0.51 0.48 0.43 0.43 0.44 0.44 0.47 0.54 0.58 0.57 0.57 0.57 0.54 0.55 0.58 0.65 0.72 0.73 0.86 0.96 1.03 1.04 0.92 0.95 1.08 1.25 1.21 1.12 1.04 1.01 0.85 0.80
0.78 0.84 0.85 0.63 0.58 0.56 0.54 0.47 0.34 0.35 0.29 0.25 0.22 0.23 0.24 0.28 0.35 0.42 0.41 0.36 0.36 0.34 0.33 0.39 0.45 0.52 0.58 0.62 0.66 0.62 0.66 0.67 0.65 0.70 0.68 0.73 0.88 1.04 1.12 1.03 0.98 1.13 1.30 1.44 1.46 1.27 1.16 1.01 0.90
0.93 0.90 0.80 0.69 0.55 0.51 0.46 0.42 0.37 0.30 0.25 0.20 0.18 0.18 0.18 0.20 0.23 0.29 0.30 0.29 0.28 0.27 0.26 0.29 0.34 0.41 0.48 0.57 0.65 0.67 0.69 0.83 0.91 0.79 0.65 0.72 0.85 0.96 1.17 1.24 1.19 1.22 1.37 1.41 1.43 1.40 1.21 1.14 1.09
0.75 0.65 0.60 0.60 0.46 0.33 0.29 0.29 0.28 0.21 0.15 0.14 0.15 0.13 0.11 0.12 0.15 0.19 0.22 0.22 0.24 0.24 0.23 0.25 0.31 0.33 0.36 0.47 0.64 0.73 0.70 0.80 1.01 1.05 1.01 1.05 1.12 1.18 1.34 1.42 1.40 1.40 1.45 1.41 1.51 1.65 1.40 1.21 1.24
0.63 0.51 0.43 0.31 0.24 0.20 0.17 0.19 0.20 0.17 0.15 0.13 0.11 0.09 0.08 0.09 0.09 0.11 0.14 0.16 0.18 0.18 0.19 0.24 0.29 0.32 0.34 0.42 0.53 0.62 0.72 0.90 1.11 1.17 1.22 1.35 1.37 1.40 1.54 1.63 1.65 1.58 1.48 1.51 1.66 1.97 1.84 1.49 1.32
0.55 0.41 0.33 0.22 0.14 0.12 0.13 0.17 0.18 0.15 0.13 0.11 0.09 0.07 0.07 0.08 0.08 0.07 0.09 0.11 0.12 0.10 0.12 0.18 0.27 0.36 0.42 0.48 0.62 0.77 1.00 1.11 1.25 1.40 1.39 1.41 1.46 1.49 1.57 1.78 1.88 1.81 1.76 1.84 1.84 2.02 2.13 1.90 1.68
0.48 0.38 0.26 0.17 0.12 0.13 0.14 0.17 0.17 0.16 0.14 0.13 0.11 0.10 0.09 0.09 0.08 0.06 0.06 0.07 0.09 0.08 0.11 0.17 0.32 0.51 0.72 0.82 1.05 1.33 1.58 1.66 1.58 1.57 1.61 1.59 1.63 1.70 1.66 1.77 1.97 1.93 1.88 1.87 2.03 2.26 2.48 2.43 2.22
0.39 0.27 0.18 0.13 0.12 0.14 0.11 0.16 0.15 0.17 0.19 0.19 0.17 0.14 0.13 0.14 0.12 0.09 0.10 0.09 0.10 0.12 0.22 0.38 0.62 0.92 1.17 1.32 1.52 1.72 1.83 1.87 1.80 1.81 1.79 1.77 1.69 1.62 1.61 1.72 1.93 2.06 2.13 2.16 2.22 2.21 2.47 2.66 2.49
0.30 0.22 0.17 0.15 0.12 0.11 0.09 0.12 0.16 0.22 0.28 0.29 0.29 0.28 0.26 0.26 0.20 0.20 0.22 0.23 0.30 0.40 0.59 0.88 1.13 1.38 1.53 1.58 1.68 1.88 2.03 2.19 2.20 2.08 1.93 1.82 1.78 1.70 1.61 1.66 1.73 1.78 1.85 1.96 2.10 2.17 2.36 2.46 2.57
0.25 0.21 0.20 0.18 0.14 0.15 0.11 0.10 0.21 0.28 0.33 0.37 0.38 0.34 0.32 0.31 0.30 0.36 0.46 0.57 0.72 0.83 1.01 1.22 1.36 1.51 1.51 1.52 1.58 1.71 1.90 2.06 2.08 2.09 2.05 1.92 1.78 1.67 1.58 1.53 1.64 1.66 1.66 1.78 1.90 1.99 2.20 2.34 2.45
0.22 0.24 0.28 0.27 0.26 0.22 0.14 0.22 0.30 0.27 0.27 0.33 0.36 0.35 0.35 0.34 0.42 0.57 0.72 0.86 0.98 1.09 1.20 1.23 1.23 1.28 1.30 1.32 1.36 1.44 1.50 1.53 1.59 1.70 1.62 1.49 1.36 1.31 1.30 1.24 1.30 1.43 1.48 1.66 1.73 1.67 1.72 1.87 2.07
0.17 0.16 0.26 0.32 0.28 0.25 0.21 0.39 0.41 0.31 0.26 0.26 0.27 0.33 0.43 0.57 0.68 0.78 0.88 0.97 1.01 1.14 1.21 1.16 1.14 1.13 1.06 1.00 1.05 1.07 1.12 1.17 1.20 1.22 1.17 1.09 1.04 1.01 0.97 0.97 0.98 1.04 1.13 1.34 1.55 1.53 1.55 1.61 1.68
0.11 0.11 0.17 0.26 0.25 0.23 0.27 0.46 0.45 0.30 0.24 0.23 0.25 0.32 0.48 0.70 0.94 1.08 1.08 0.99 0.90 0.94 1.02 1.01 0.97 0.92 0.84 0.79 0.82 0.85 0.92 0.95 0.93 0.91 0.86 0.84 0.78 0.78 0.76 0.78 0.86 0.92 0.91 1.02 1.15 1.33 1.40 1.46 1.52
0.09 0.11 0.18 0.30 0.31 0.32 0.35 0.48 0.44 0.32 0.28 0.26 0.31 0.40 0.58 0.80 1.00 1.24 1.38 1.27 1.00 0.80 0.82 0.79 0.77 0.80 0.79 0.75 0.77 0.77 0.70 0.65 0.66 0.69 0.63 0.62 0.67 0.71 0.70 0.67 0.68 0.74 0.77 0.87 0.97 1.03 1.13 1.20 1.36
0.08 0.14 0.20 0.26 0.28 0.38 0.60 0.72 0.60 0.50 0.44 0.43 0.48 0.54 0.61 0.88 1.17 1.31 1.36 1.23 1.05 0.78 0.69 0.69 0.66 0.70 0.77 0.70 0.72 0.71 0.61 0.49 0.47 0.47 0.45 0.45 0.49 0.55 0.56 0.59 0.65 0.65 0.67 0.69 0.70 0.75 0.80 0.87 0.97
0.14 0.21 0.29 0.39 0.42 0.42 0.56 0.67 0.53 0.55 0.61 0.56 0.61 0.70 0.72 0.78 0.83 0.85 0.96 0.97 0.91 0.78 0.71 0.75 0.80 0.79 0.72 0.65 0.62 0.58 0.51 0.44 0.43 0.41 0.38 0.40 0.45 0.47 0.49 0.54 0.58 0.58 0.64 0.66 0.66 0.65 0.67 0.76 0.83